"America/Chicago Time","Lifetime Energy (kWh)","Power (W)","AC Volts RMS (V) ","AC Amps RMS (mA)","Grid Frequency (Hz)","Inverter Temperature (C)"
"08/06/12 09:54:25","191.9789","157.1","216.27","723","60.0","32"
"08/06/12 09:59:25","191.9912","158.6","215.25","736","60.0","33"
"08/06/12 10:04:26","192.0037","161.3","215.82","744","60.03","33"
"08/06/12 10:09:25","192.0163","163.7","215.31","760","60.03","34"
"08/06/12 10:14:24","192.0293","168.2","215.79","776","60.03","33"
"08/06/12 10:19:26","192.0425","168.4","215.95","778","60.03","34"
"08/06/12 10:24:26","192.0557","171.6","215.91","789","60.0","35"
"08/06/12 10:29:25","192.0691","174.5","215.21","804","60.0","35"
"08/06/12 10:34:26","192.0829","177.1","216.48","808","60.0","35"
"08/06/12 10:39:26","192.0968","179.0","216.83","815","60.03","35"
"08/06/12 10:44:25","192.1108","181.9","216.48","834","60.03","35"
"08/06/12 10:49:25","192.125","182.1","216.01","833","60.03","36"
"08/06/12 10:54:24","192.1393","185.0","215.98","846","60.03","36"
"08/06/12 10:59:24","192.1539","187.0","217.11","851","60.07","36"
"08/06/12 11:04:25","192.1685","187.6","216.86","856","60.0","37"
"08/06/12 11:09:25","192.1834","190.4","217.5","866","60.0","37"
"08/06/12 11:14:26","192.1983","190.5","216.87","869","60.0","37"
"08/06/12 11:19:25","192.2132","193.3","217.18","873","60.03","37"
"08/06/12 11:24:26","192.2284","194.3","217.48","881","60.0","37"
"08/06/12 11:29:26","192.2434","192.2","217.38","879","60.0","38"
"08/06/12 11:34:25","192.2586","196.1","217.03","885","60.0","38"
"08/06/12 11:39:24","192.2738","196.0","215.38","892","60.03","37"
"08/06/12 11:44:25","192.2891","195.3","215.77","891","60.03","38"
"08/06/12 11:49:25","192.3043","195.7","215.79","882","60.03","38"
"08/06/12 11:54:25","192.3196","195.9","215.53","899","60.03","38"
"08/06/12 11:59:24","192.3348","196.3","215.37","892","60.03","38"
"08/06/12 12:04:25","192.3501","196.1","216.21","894","60.03","38"
"08/06/12 12:09:25","192.3653","196.3","215.77","877","60.0","38"
"08/06/12 12:14:25","192.3804","193.6","215.78","887","60.03","39"
"08/06/12 12:19:26","192.3954","193.8","216.92","880","60.03","39"
"08/06/12 12:24:24","192.4106","195.9","216.47","888","60.0","39"
"08/06/12 12:29:24","192.4259","196.2","214.77","895","60.03","38"
"08/06/12 12:34:26","192.4412","195.2","216.02","895","60.03","38"
"08/06/12 12:39:24","192.4565","197.2","216.89","896","60.0","38"
"08/06/12 12:44:25","192.4714","139.0","215.05","650","60.0","38"
"08/06/12 12:49:26","192.4834","43.2","213.39","217","60.0","37"
"08/06/12 12:54:25","192.4969","196.6","216.8","897","60.03","38"
"08/06/12 12:59:24","192.5121","195.2","216.54","886","60.03","38"
"08/06/12 13:04:24","192.5273","195.4","216.66","880","60.03","38"
"08/06/12 13:09:25","192.5408","93.3","213.46","455","60.0","38"
"08/06/12 13:14:25","192.5549","196.0","216.39","895","60.03","38"
"08/06/12 13:19:25","192.5698","189.8","217.13","862","60.0","38"
"08/06/12 13:24:25","192.5844","196.2","218.09","884","60.0","38"
"08/06/12 13:29:25","192.5997","195.7","218.38","878","60.0","38"
"08/06/12 13:34:25","192.6141","158.0","216.18","730","60.03","38"
"08/06/12 13:39:24","192.6232","86.9","214.8","421","60.03","36"
"08/06/12 13:44:25","192.6346","195.3","216.94","891","60.0","36"
"08/06/12 13:49:26","192.6495","188.5","216.39","860","60.03","37"
"08/06/12 13:54:24","192.663","173.3","216.17","791","60.03","37"
"08/06/12 13:59:25","192.6766","168.6","216.05","773","60.03","38"
"08/06/12 14:04:24","192.6893","178.0","216.89","808","60.03","38"
"08/06/12 14:09:26","192.7031","176.6","217.15","806","60.03","38"
"08/06/12 14:14:25","192.717","162.1","216.64","749","60.03","38"
"08/06/12 14:19:25","192.7279","152.5","217.16","700","60.03","38"
"08/06/12 14:24:25","192.739","155.0","217.22","715","60.03","38"
"08/06/12 14:29:25","192.7507","112.2","216.62","532","60.0","38"
"08/06/12 14:34:24","192.7632","140.6","216.28","648","60.0","38"
"08/06/12 14:39:25","192.7746","167.0","217.24","770","60.03","38"
"08/06/12 14:44:25","192.7863","99.2","216.37","478","60.03","38"
"08/06/12 14:49:25","192.7997","188.5","217.34","853","60.0","38"
"08/06/12 14:54:26","192.8141","183.9","217.42","834","60.03","39"
"08/06/12 14:59:25","192.8275","141.4","216.66","657","60.0","39"
"08/06/12 15:04:25","192.8402","140.3","216.74","652","60.03","39"
"08/06/12 15:09:26","192.8501","84.8","214.98","414","60.0","38"
"08/06/12 15:14:25","192.8576","69.3","213.93","347","60.0","37"
"08/06/12 15:19:26","192.8618","47.1","213.3","171","60.03","35"
"08/06/12 15:24:25","192.8657","55.5","214.09","100","60.03","34"
"08/06/12 15:29:25","192.8696","39.8","214.45","119","60.03","34"
"08/06/12 15:34:26","192.8726","39.5","214.21","77","60.03","33"
"08/06/12 15:39:24","192.8748","18.5","214.06","18","60.03","32"
"08/06/12 15:44:24","192.8768","27.7","214.41","80","60.0","32"
"08/06/12 15:49:25","192.8794","41.5","214.41","235","60.0","31"
"08/06/12 15:54:24","192.8822","36.6","213.15","257","60.03","31"
"08/06/12 15:59:25","192.8844","15.4","214.39","41","60.03","31"
"08/06/12 16:04:26","192.8861","20.1","214.83","14","60.03","30"
"08/06/12 16:09:25","192.8878","37.7","214.35","39","60.0","30"
"08/06/12 16:14:24","192.8898","12.6","214.1","18","60.03","30"
"08/06/12 16:19:25","192.8909","20.0","214.19","104","60.0","29"
"08/06/12 16:24:26","192.892","12.6","212.96","17","60.0","29"
"08/06/12 16:29:26","192.8937","31.6","214.92","124","60.0","29"
"08/06/12 16:34:25","192.8962","34.8","214.53","273","60.03","29"
"08/06/12 16:39:25","192.8997","41.8","214.16","270","60.03","29"
"08/06/12 16:44:25","192.9033","32.3","214.15","327","60.03","30"
"08/06/12 16:49:25","192.9061","34.2","214.15","234","60.03","30"
"08/06/12 16:54:24","192.9085","24.8","214.08","58","60.0","30"
"08/06/12 16:59:26","192.9099","16.0","214.02","191","60.07","29"
"08/06/12 17:04:25","192.911","18.8","214.46","79","60.03","29"
"08/06/12 17:09:26","192.9119","0.0","215.34","75","60.03","29"
"08/06/12 17:14:26","192.9125","14.7","214.3","1","60.0","29"
"08/06/12 17:19:26","192.9131","12.7","214.79","2","60.03","28"
"08/06/12 17:24:25","192.9141","16.0","213.79","270","60.03","28"
"08/06/12 17:29:26","192.915","14.8","213.68","70","60.03","28"
"08/06/12 17:34:25","192.9157","10.8","213.15","0","60.03","28"
"08/06/12 17:39:26","192.9166","48.0","214.86","107","60.03","28"
"08/06/12 17:44:26","192.9193","36.3","214.39","272","60.03","28"
"08/06/12 17:49:26","192.9221","40.5","214.8","118","60.0","29"
"08/06/12 17:54:25","192.9255","33.4","214.56","277","60.03","29"
"08/06/12 17:59:25","192.9291","35.3","214.13","70","60.03","30"
"08/06/12 18:04:25","192.9314","33.2","214.56","93","60.03","30"
"08/06/12 18:09:26","192.9334","23.0","214.27","308","60.0","30"
"08/06/12 18:14:26","192.9369","51.5","214.45","300","60.0","31"
"08/06/12 18:19:25","192.9393","35.3","213.9","272","60.07","31"
"08/06/12 18:24:25","192.9412","20.0","214.76","127","60.0","31"
"08/06/12 18:29:26","192.9428","34.1","214.33","109","60.03","31"
"08/06/12 18:34:26","192.9445","21.8","214.22","227","60.03","31"
"08/06/12 18:39:26","192.9457","8.7","214.47","0","60.03","30"
"08/06/12 18:44:25","192.9461","0.0","214.5","0","60.03","30"
"08/06/12 18:49:25","192.9463","11.4","213.98","1","60.03","30"
"08/06/12 18:54:26","192.9466","13.6","213.77","0","60.03","29"
"08/06/12 18:59:25","192.9468","10.9","213.18","70","60.07","29"
"08/07/12 06:19:30","192.9474","14.2","213.11","199","60.03","19"
"08/07/12 06:24:30","192.9476","9.3","212.84","161","60.03","19"
"08/07/12 06:29:33","192.948","0.0","212.99","178","60.07","19"
"08/07/12 06:34:28","192.9484","14.1","216.38","1","60.03","19"
"08/07/12 06:39:29","192.949","0.0","215.3","0","60.07","19"
"08/07/12 06:44:29","192.9495","9.8","214.74","118","60.0","19"
"08/07/12 06:49:30","192.9504","14.8","214.24","47","60.03","20"
"08/07/12 06:54:30","192.9516","12.7","214.28","98","60.03","20"
"08/07/12 06:59:28","192.9532","28.0","212.26","54","60.0","20"
"08/07/12 07:04:30","192.955","26.3","213.49","290","60.07","20"
"08/07/12 07:09:28","192.9571","25.1","215.45","126","60.03","21"
"08/07/12 07:14:28","192.9594","36.5","214.78","180","60.03","21"
"08/07/12 07:19:28","192.9621","42.4","214.62","88","60.03","22"
"08/07/12 07:24:29","192.9652","35.4","214.48","124","60.0","22"
"08/07/12 07:29:29","192.9685","52.1","215.69","271","60.0","23"
"08/07/12 07:34:29","192.9722","43.6","214.72","385","60.07","23"
"08/07/12 07:39:30","192.9761","46.2","215.09","423","60.07","23"
"08/07/12 07:44:28","192.9799","41.9","215.11","424","60.03","24"
"08/07/12 07:49:30","192.9838","47.4","213.89","372","60.03","24"
"08/07/12 07:54:28","192.9877","47.0","214.87","183","60.07","25"
"08/07/12 07:59:29","192.9916","54.4","214.92","175","60.0","25"
"08/07/12 08:04:29","192.9957","51.2","215.49","105","60.03","25"
"08/07/12 08:09:29","193.0001","70.6","215.24","318","60.0","26"
"08/07/12 08:14:29","193.0052","86.0","215.61","419","60.0","26"
"08/07/12 08:19:30","193.0121","90.5","215.23","437","60.0","26"
"08/07/12 08:24:28","193.0193","94.4","216.06","456","60.03","27"
"08/07/12 08:29:29","193.0268","99.5","216.56","478","60.0","27"
"08/07/12 08:34:28","193.0344","99.2","216.61","475","60.03","27"
"08/07/12 08:39:29","193.0426","107.6","216.82","511","60.03","27"
"08/07/12 08:44:30","193.0512","111.6","217.68","526","60.03","28"
"08/07/12 08:49:30","193.06","115.4","216.5","542","60.0","28"
"08/07/12 08:54:29","193.0691","119.4","217.98","561","60.03","29"
"08/07/12 08:59:28","193.0785","122.8","216.55","576","60.0","29"
"08/07/12 09:04:28","193.0882","126.1","214.68","599","60.03","29"
"08/07/12 09:09:30","193.0982","130.1","215.67","611","60.0","30"
"08/07/12 09:14:29","193.1085","133.6","216.88","620","60.0","30"
"08/07/12 09:19:30","193.1191","137.4","217.04","635","60.0","30"
"08/07/12 09:24:28","193.1299","140.3","216.73","652","60.03","31"
"08/07/12 09:29:29","193.1409","142.9","216.48","662","60.03","31"
"08/07/12 09:34:28","193.1521","145.7","216.46","674","60.03","31"
"08/07/12 09:39:29","193.1637","149.5","216.88","688","60.0","32"
"08/07/12 09:44:29","193.1755","152.8","216.71","707","60.0","32"
"08/07/12 09:49:29","193.1875","155.4","217.72","716","60.03","32"
"08/07/12 09:54:29","193.1998","158.6","218.12","722","60.03","32"
"08/07/12 09:59:30","193.2123","161.2","217.74","741","60.0","32"
"08/07/12 10:04:29","193.2249","164.2","217.32","758","60.03","33"
"08/07/12 10:09:29","193.2378","167.4","218.0","764","60.0","33"
"08/07/12 10:14:28","193.2509","169.6","218.47","776","60.03","33"
"08/07/12 10:19:28","193.2643","171.8","217.63","787","60.0","34"
"08/07/12 10:24:29","193.2778","174.7","217.82","798","60.0","34"
"08/07/12 10:29:30","193.2916","176.9","216.44","806","59.96","34"
"08/07/12 10:34:28","193.3053","178.8","217.16","812","60.0","35"
"08/07/12 10:39:28","193.3193","180.3","216.86","824","60.0","35"
"08/07/12 10:44:28","193.3335","183.5","216.89","835","60.0","35"
"08/07/12 10:49:29","193.3479","185.8","216.99","843","60.0","36"
"08/07/12 10:54:29","193.3625","188.4","217.7","851","60.0","36"
"08/07/12 10:59:29","193.3774","189.5","217.67","852","60.03","36"
"08/07/12 11:04:30","193.3923","192.9","217.01","875","60.03","36"
"08/07/12 11:09:30","193.4074","193.4","221.19","859","60.0","36"
"08/07/12 11:14:30","193.4226","195.7","218.26","887","60.0","36"
"08/07/12 11:19:28","193.4378","196.5","218.59","877","60.03","36"
"08/07/12 11:24:29","193.4531","196.4","214.52","898","60.03","36"
"08/07/12 11:29:29","193.4685","196.1","216.1","895","60.03","36"
"08/07/12 11:34:30","193.4837","196.4","217.26","889","60.0","36"
"08/07/12 11:39:28","193.499","195.4","218.43","885","60.0","36"
"08/07/12 11:44:29","193.5143","195.9","217.46","890","60.03","36"
"08/07/12 11:49:32","193.5297","195.4","217.11","888","60.03","36"
"08/07/12 11:54:28","193.5448","196.0","219.22","880","60.07","37"
"08/07/12 11:59:29","193.5602","195.9","219.12","883","60.07","37"
"08/07/12 12:04:29","193.5754","194.8","217.93","880","60.03","37"
"08/07/12 12:09:30","193.5906","195.2","217.6","890","60.0","38"
"08/07/12 12:14:30","193.6058","195.2","218.49","889","60.03","38"
"08/07/12 12:19:28","193.621","195.5","217.8","881","60.0","38"
"08/07/12 12:24:29","193.6363","195.6","218.06","886","60.0","38"
"08/07/12 12:29:29","193.6516","196.0","217.68","894","60.0","37"
"08/07/12 12:34:29","193.667","196.7","218.77","885","60.0","37"
"08/07/12 12:39:28","193.6822","195.8","217.73","887","60.0","37"
"08/07/12 12:44:28","193.6976","196.0","217.61","887","60.0","37"
"08/07/12 12:49:29","193.7129","195.6","218.54","890","60.0","37"
"08/07/12 12:54:29","193.7282","196.7","218.57","888","60.0","37"
"08/07/12 12:59:29","193.7435","197.2","219.22","893","60.07","37"
"08/07/12 13:04:29","193.7587","195.8","218.43","878","60.0","38"
"08/07/12 13:09:29","193.7741","196.5","218.46","878","60.0","37"
"08/07/12 13:14:30","193.7894","196.5","219.03","884","60.03","37"
"08/07/12 13:19:29","193.8046","196.4","218.6","880","60.0","37"
"08/07/12 13:24:30","193.82","195.6","218.1","888","60.03","37"
"08/07/12 13:29:29","193.8352","196.1","218.32","891","60.03","38"
"08/07/12 13:34:30","193.8506","196.1","218.43","881","60.03","38"
"08/07/12 13:39:28","193.8658","196.2","219.51","876","60.03","38"
"08/07/12 13:44:30","193.881","195.3","218.27","883","60.03","38"
"08/07/12 13:49:29","193.8963","195.4","219.39","884","60.0","38"
"08/07/12 13:54:29","193.9115","195.6","218.71","879","60.03","38"
"08/07/12 13:59:28","193.9268","195.3","218.71","887","60.03","39"
"08/07/12 14:04:28","193.942","195.9","217.99","881","60.0","38"
"08/07/12 14:09:30","193.9572","193.7","218.38","868","60.0","38"
"08/07/12 14:14:29","193.9721","189.8","217.31","864","60.03","38"
"08/07/12 14:19:29","193.987","191.7","217.34","870","60.03","38"
"08/07/12 14:24:30","194.0017","186.9","217.5","843","60.03","38"
"08/07/12 14:29:29","194.0162","185.5","218.28","840","60.03","38"
"08/07/12 14:34:29","194.0305","183.7","217.54","835","60.0","38"
"08/07/12 14:39:29","194.0448","181.2","217.92","826","60.0","38"
"08/07/12 14:44:29","194.0588","179.1","217.96","813","60.0","38"
"08/07/12 14:49:29","194.0727","176.4","218.12","803","60.03","38"
"08/07/12 14:54:30","194.0863","173.7","217.21","794","60.0","38"
"08/07/12 14:59:30","194.0999","173.4","217.06","793","60.0","37"
"08/07/12 15:04:30","194.1133","170.9","217.17","784","60.03","37"
"08/07/12 15:09:29","194.1264","167.7","217.33","768","60.03","36"
"08/07/12 15:14:30","194.1393","163.6","216.9","748","60.03","37"
"08/07/12 15:19:29","194.152","162.6","216.92","747","60.0","36"
"08/07/12 15:24:28","194.1645","160.4","217.13","736","60.03","35"
"08/07/12 15:29:30","194.177","157.3","216.77","721","60.0","35"
"08/07/12 15:34:28","194.189","154.3","217.23","708","60.03","34"
"08/07/12 15:39:28","194.2009","150.2","216.96","692","60.03","34"
"08/07/12 15:44:29","194.2125","146.0","216.95","677","60.03","34"
"08/07/12 15:49:28","194.2237","142.3","216.5","655","60.03","35"
"08/07/12 15:54:30","194.2346","138.8","216.1","645","60.03","35"
"08/07/12 15:59:30","194.2453","136.0","216.78","632","60.0","35"
"08/07/12 16:04:29","194.2557","132.7","216.47","621","60.03","35"
"08/07/12 16:09:30","194.266","129.9","216.23","606","60.03","34"
"08/07/12 16:14:29","194.2758","125.3","217.14","584","60.03","34"
"08/07/12 16:19:30","194.2855","121.2","215.96","566","60.0","34"
"08/07/12 16:24:29","194.2948","117.9","216.42","554","60.03","34"
"08/07/12 16:29:30","194.3039","114.4","215.78","543","60.03","34"
"08/07/12 16:34:29","194.3125","110.5","215.54","527","60.03","33"
"08/07/12 16:39:28","194.321","107.1","215.42","510","60.0","33"
"08/07/12 16:44:28","194.321","102.6","215.42","493","60.03","32"
"08/07/12 16:49:28","194.3289","98.4","215.93","470","60.0","32"
"08/07/12 16:54:28","194.3363","93.8","215.97","455","60.03","32"
"08/07/12 16:59:29","194.3434","88.9","215.77","435","60.03","32"
"08/07/12 17:04:29","194.3502","84.4","215.52","413","60.03","32"
"08/07/12 17:09:29","194.3566","80.3","216.11","393","60.03","32"
"08/07/12 17:14:30","194.3626","75.8","216.04","375","60.0","31"
"08/07/12 17:19:29","194.3684","71.6","215.93","360","60.07","31"
"08/07/12 17:24:29","194.3738","67.4","214.88","342","60.0","31"
"08/07/12 17:29:30","194.3789","62.7","215.64","319","60.03","30"
"08/07/12 17:34:29","194.3831","59.6","215.02","80","60.0","30"
"08/07/12 17:39:29","194.387","45.7","214.44","287","60.03","30"
"08/07/12 17:44:29","194.3909","46.7","215.31","387","60.03","29"
"08/07/12 17:49:28","194.3945","48.9","215.31","242","60.03","30"
"08/07/12 17:54:29","194.3978","44.5","214.45","300","60.03","30"
"08/07/12 17:59:29","194.4008","40.2","214.96","294","60.03","29"
"08/07/12 18:04:28","194.4034","33.1","214.39","220","60.03","29"
"08/07/12 18:09:29","194.4058","28.2","214.48","132","60.03","29"
"08/07/12 18:14:28","194.4079","36.5","214.92","80","60.03","29"
"08/07/12 18:19:29","194.4097","31.3","214.79","203","60.03","29"
"08/07/12 18:24:29","194.4113","25.7","214.77","237","60.03","28"
"08/07/12 18:29:29","194.4126","13.7","214.21","153","60.03","28"
"08/07/12 18:34:30","194.4136","4.1","214.26","141","60.03","28"
"08/07/12 18:39:29","194.4146","14.1","215.12","104","60.03","28"
"08/07/12 18:44:29","194.4153","9.9","214.9","236","60.0","27"
"08/07/12 18:49:30","194.4161","13.2","213.82","24","60.0","27"
"08/07/12 18:54:29","194.4169","6.7","213.53","214","60.03","27"
"08/07/12 18:59:30","194.4178","15.7","213.98","85","60.03","27"
"08/07/12 19:04:29","194.4189","14.3","213.54","177","60.03","27"
"08/07/12 19:09:32","194.42","16.2","212.73","79","60.0","26"
"08/07/12 19:14:28","194.4209","14.9","212.98","7","60.03","26"
"08/07/12 19:19:29","194.4216","10.9","214.03","1","60.0","26"
"08/07/12 19:24:29","194.4222","0.0","212.88","36","60.0","26"
"08/07/12 19:29:30","194.4226","0.0","212.99","0","60.03","25"
"08/08/12 06:24:30","194.4239","0.0","213.72","0","60.0","17"
"08/08/12 06:29:38","194.4242","14.7","213.88","0","60.03","17"
"08/08/12 06:34:33","194.4247","0.0","213.8","0","60.03","17"
"08/08/12 06:39:33","194.4251","12.7","213.53","141","60.03","18"
"08/08/12 06:44:34","194.4256","0.0","213.9","0","60.03","18"
"08/08/12 06:49:33","194.4262","12.2","213.82","1","60.0","18"
"08/08/12 06:54:33","194.427","13.9","213.71","0","60.0","18"
"08/08/12 06:59:33","194.4277","12.3","214.68","11","60.03","18"
"08/08/12 07:04:33","194.4286","5.2","214.42","72","60.03","18"
"08/08/12 07:09:33","194.4296","14.8","214.97","248","60.03","19"
"08/08/12 07:14:33","194.4308","15.5","214.61","159","60.0","19"
"08/08/12 07:19:34","194.432","10.1","215.41","6","60.03","19"
"08/08/12 07:24:32","194.4331","17.3","213.65","13","60.03","19"
"08/08/12 07:29:33","194.4349","26.3","214.01","118","60.03","20"
"08/08/12 07:34:33","194.4383","49.6","214.47","96","60.03","20"
"08/08/12 07:39:33","194.4421","42.7","213.77","281","60.03","20"
"08/08/12 07:44:33","194.4456","56.2","213.68","222","60.03","22"
"08/08/12 07:49:33","194.4488","35.7","213.69","244","60.03","22"
"08/08/12 07:54:33","194.4516","43.4","213.72","100","60.03","22"
"08/08/12 07:59:33","194.4542","18.9","213.72","337","60.07","22"
"08/08/12 08:04:34","194.456","16.5","213.81","38","60.0","22"
"08/08/12 08:09:34","194.4575","11.7","213.82","198","60.03","22"
"08/08/12 08:14:32","194.4586","12.9","213.3","10","60.03","22"
"08/08/12 08:19:33","194.4599","11.4","213.88","249","60.0","22"
"08/08/12 08:24:33","194.4617","29.9","213.72","236","60.0","22"
"08/08/12 08:29:33","194.4635","28.9","212.86","182","60.03","22"
"08/08/12 08:34:33","194.4667","40.1","212.99","364","60.03","23"
"08/08/12 08:39:33","194.4696","31.5","213.03","246","60.0","23"
"08/08/12 08:44:33","194.4723","17.4","212.52","13","60.03","23"
"08/08/12 08:49:32","194.4737","14.9","213.48","70","60.03","23"
"08/08/12 08:54:32","194.4753","16.1","213.73","4","60.03","23"
"08/08/12 08:59:33","194.4763","15.5","213.42","239","60.0","23"
"08/08/12 09:04:33","194.477","14.1","214.57","101","60.03","23"
"08/08/12 09:09:32","194.4784","14.9","214.03","145","60.03","23"
"08/08/12 09:14:37","194.4804","26.1","213.59","132","60.0","23"
"08/08/12 09:19:32","194.483","35.0","213.9","101","60.03","24"
"08/08/12 09:24:32","194.4858","33.2","214.11","295","60.0","24"
"08/08/12 09:29:33","194.4889","40.5","214.1","189","60.0","24"
"08/08/12 09:34:33","194.4927","50.3","214.69","122","60.03","24"
"08/08/12 09:44:34","194.5084","75.9","214.5","376","60.0","26"
"08/08/12 09:49:33","194.5142","72.4","214.26","364","60.03","27"
"08/08/12 09:54:32","194.5194","56.8","213.88","178","60.0","27"
"08/08/12 09:59:33","194.5232","41.0","214.25","298","60.03","27"
"08/08/12 10:04:32","194.5268","44.4","214.71","352","60.03","27"
"08/08/12 10:09:32","194.5322","122.1","214.69","578","60.0","28"
"08/08/12 10:14:32","194.5395","83.5","214.28","409","60.03","28"
"08/08/12 10:19:33","194.5458","82.3","215.31","406","60.0","28"
"08/08/12 10:24:33","194.553","86.8","215.89","424","60.0","29"
"08/08/12 10:29:33","194.5605","105.2","214.63","503","60.03","29"
"08/08/12 10:34:32","194.567","47.9","213.83","368","60.0","29"
"08/08/12 10:39:33","194.5705","37.8","214.07","382","60.0","29"
"08/08/12 10:44:34","194.5741","35.8","214.1","112","60.03","28"
"08/08/12 10:49:34","194.5767","28.2","213.07","225","60.03","28"
"08/08/12 10:54:32","194.5791","25.4","213.68","208","60.0","28"
"08/08/12 10:59:33","194.581","17.4","214.3","151","60.03","27"
"08/08/12 11:04:33","194.5828","12.8","214.44","98","60.03","27"
"08/08/12 11:09:32","194.5846","29.6","214.32","328","60.03","26"
"08/08/12 11:14:33","194.5871","33.0","214.82","300","60.03","26"
"08/08/12 11:19:33","194.5905","49.7","214.7","348","60.0","26"
"08/08/12 11:24:32","194.5944","56.9","214.27","216","60.03","26"
"08/08/12 11:29:33","194.5983","53.5","213.85","376","60.03","26"
"08/08/12 11:34:33","194.6022","41.6","214.08","214","60.0","26"
"08/08/12 11:39:33","194.606","56.8","213.5","100","60.0","26"
"08/08/12 11:44:33","194.6096","44.8","213.45","182","60.03","26"
"08/08/12 11:49:34","194.6124","35.4","213.62","171","60.03","26"
"08/08/12 11:54:32","194.616","47.2","213.81","407","60.03","26"
"08/08/12 11:59:32","194.6199","48.4","214.65","350","60.03","26"
"08/08/12 12:04:32","194.6238","43.8","214.14","354","60.03","26"
"08/08/12 12:09:32","194.6276","60.4","214.7","347","60.03","26"
"08/08/12 12:14:33","194.6316","45.1","215.41","333","60.0","26"
"08/08/12 12:19:32","194.6379","99.2","216.7","477","60.03","27"
"08/08/12 12:24:33","194.6446","72.4","215.06","362","60.0","27"
"08/08/12 12:29:33","194.6502","76.3","215.23","383","60.03","27"
"08/08/12 12:34:33","194.6571","97.9","215.85","470","60.03","28"
"08/08/12 12:39:32","194.6659","123.9","214.63","584","60.03","28"
"08/08/12 12:44:32","194.6746","100.7","214.58","488","60.03","28"
"08/08/12 12:49:32","194.6826","92.5","215.13","453","60.03","29"
"08/08/12 12:54:32","194.6895","94.1","215.48","457","60.0","29"
"08/08/12 12:59:33","194.699","150.4","216.78","694","60.03","30"
"08/08/12 13:04:33","194.7126","174.7","216.84","796","60.07","31"
"08/08/12 13:09:33","194.7252","114.2","215.69","545","60.03","32"
"08/08/12 13:14:32","194.7358","122.9","216.35","577","60.0","32"
"08/08/12 13:19:33","194.7429","84.0","215.29","409","60.03","32"
"08/08/12 13:24:34","194.7487","66.5","215.42","331","60.03","31"
"08/08/12 13:29:34","194.753","48.6","215.18","379","60.03","30"
"08/08/12 13:34:33","194.7568","50.9","215.3","377","60.03","30"
"08/08/12 13:39:33","194.7599","39.4","215.31","283","60.03","29"
"08/08/12 13:44:33","194.7624","36.6","214.92","76","60.0","29"
"08/08/12 13:49:34","194.7652","44.2","215.15","147","60.03","28"
"08/08/12 13:54:34","194.7685","35.0","214.86","304","60.0","28"
"08/08/12 13:59:32","194.7715","43.4","213.93","317","60.03","27"
"08/08/12 14:04:33","194.7749","42.3","215.1","288","60.03","27"
"08/08/12 14:09:33","194.7788","48.8","214.64","74","60.03","27"
"08/08/12 14:14:32","194.7825","51.7","214.03","339","60.03","27"